Regional Weather Roundup
Issued by NWS

Home | Current Version | Previous Version | Graphics & Text | Print | Product List | Glossary On
Versions: 1 2 3 4 5 6 7 8 9 10 11 12 13 14 15 16 17 18 19 20 21 22 23 24 25 26 27 28 29 30 31 32 33 34 35 36 37 38 39 40 41 42 43 44 45 46 47 48 49 50
545
ASUS45 KTFX 202310
RWRMT
MONTANA REGIONAL WEATHER ROUNDUP
NATIONAL WEATHER SERVICE GREAT FALLS MT
500 PM MDT FRI OCT 20 2017

NOTE: "FAIR" INDICATES FEW OR NO CLOUDS BELOW 12000 FEET WITH NO
SIGNIFICANT WEATHER AND/OR OBSTRUCTIONS TO VISIBILITY.

MTZ001>007-043-210000-
WEST OF THE DIVIDE

CITY           SKY/WX    TMP DP  RH WIND       PRES   REMARKS
KALISPELL      CLOUDY    46  36  68 SW14      29.60R
MISSOULA       CLOUDY    41  37  86 CALM      29.70R
BUTTE          CLOUDY    36  32  85 NW9       29.64R WCI  29
MULLAN PASS    SNOW      29  27  92 VRB5      29.66R VSB<1/4
ANACONDA         N/A     37  30  75 W9        29.66R WCI  31
DEER LODGE       N/A     36  36 100 NE5       29.67R
EUREKA           N/A     46  34  61 MISG      29.58R
HAMILTON         N/A     45  32  61 S3        29.72R
LIBBY            N/A     45  37  76 S6        29.62R
PLAINS           N/A     47  33  58 S6        29.71
THOMPSON FALLS   N/A     44  38  79 W6        29.76R
$$

MTZ008-052>055-210000-
SOUTHWEST MONTANA

CITY           SKY/WX    TMP DP  RH WIND       PRES   REMARKS
BOZEMAN        LGT RAIN  38  35  89 SW7       29.66R
DILLON         CLOUDY    41  22  46 W22G28    29.65R
W YELLOWSTONE  LGT SNOW  32  28  86 S12G25    29.66S WCI  23
ENNIS          CLOUDY    34  32  93 SE7       29.72R WCI  28
THREE FORKS      N/A     42  31  65 SW7       29.66R
TWIN BRIDGES     N/A     44  21  40 CALM      29.69R
$$

MTZ009-010-012-014-046-048-049-054-210000-
EAST SLOPES AND CENTRAL MONTANA

CITY           SKY/WX    TMP DP  RH WIND       PRES   REMARKS
CUT BANK       CLOUDY    46  28  49 W26       29.42R
GREAT FALLS    LGT RAIN  44  33  65 W17G33    29.48R
MALMSTROM AFB  LGT RAIN  43  37  78 W15G21    29.49R
HELENA         CLOUDY    43  32  65 W21G32    29.59R
BOWMANS CRNR   CLOUDY    43  26  51 W23       29.49R
CHOTEAU          N/A     48  25  40 W8G18     29.48R
FAIRFIELD      LGT RAIN  47  27  46 W13G32    29.47R
POWER          LGT RAIN  42  34  73 W15G25    29.47R
RAYNESFORD     LGT RAIN  40  36  84 W17G25    29.49R
ULM            CLOUDY    45  33  65 SW14      29.50R
$$

MTZ011-013-016-021-045-047-050-051-210000-
NORTH CENTRAL MONTANA

CITY           SKY/WX    TMP DP  RH WIND       PRES   REMARKS
HAVRE          CLOUDY    58  35  42 SW10      29.31R
LEWISTOWN      CLOUDY    52  32  46 W22G38    29.39R
N BAR RANCH      N/A     61  28  29 NW29G38   29.36R
CHINOOK          N/A     61  36  39 W10       29.28R
DENTON         LGT RAIN  48  35  60 MISG      29.35R
GEYSER         PTSUNNY   42  35  76 W29G43    29.46R
GRASS RANGE    PTSUNNY   56  28  33 W23G33    29.30R
JUDITH GAP       N/A     53  31  42 W29G38    29.38R
WINIFRED       PTSUNNY   54  32  43 NW25G33   29.35R
$$

MTZ017>020-022>027-061-062-210000-
NORTHEAST MONTANA

CITY           SKY/WX    TMP DP  RH WIND       PRES   REMARKS
GLASGOW        CLOUDY    74  29  19 S7        29.16R
JORDAN           N/A     73  27  18 SW15G26   29.19S
SIDNEY         CLEAR     74  43  32 NE5       29.17F
WOLF POINT     CLOUDY    77  31  18 CALM      29.15F
MALTA          SUNNY     61  30  31 W23G29    29.22R
PLENTYWOOD       N/A     72  30  21 CALM      29.18F
POPLAR           N/A     75  30  19 SE3       29.17S
SCOBEY           N/A     74  31  20 CALM      29.23S
$$

MTZ028>42-056>058-210000-
SOUTHCENTRAL AND SOUTHEAST MONTANA

CITY           SKY/WX    TMP DP  RH WIND       PRES   REMARKS
BAKER          CLEAR     74  37  26 SW9       29.23S
BILLINGS       CLOUDY    64  31  28 W25G36    29.33R
LIVINGSTON     LGT RAIN  38  35  89 W31G41    29.57R WCI  25
MILES CITY     CLOUDY    78  36  21 CALM      29.20S
BIG TIMBER     PTSUNNY   46  32  57 W43G52    29.52R
EKALAKA          N/A     76  28  17 SW6       29.32
FORSYTH          N/A     73  32  21 W6        29.22S
HARLOWTON      PTSUNNY   48  29  48 MISG      29.40R
LAUREL           N/A     63  27  25 W28       29.34
$$

REGIONAL REPORTS...DAKOTAS

CITY           SKY/WX    TMP DP  RH WIND       PRES   REMARKS
WILLISTON        N/A    N/A N/A N/A MISG      29.19F
MINOT          CLEAR     77  40  26 SE9       29.22F
DICKINSON      CLEAR     77  40  26 SE7       29.21F
BEACH            N/A     73  32  21 S8        29.24S
CROSBY           N/A     70  30  23 SW6       29.20S
TIOGA            N/A     72  37  28 SE9       29.24S
WATFORD CITY     N/A     75  34  22 SE10      29.20F
BISMARCK       PTCLDY    76  49  38 S12       29.28R
GRAND FORKS    MOCLDY    75  54  47 S20G35    29.37F
FARGO          CLEAR     75  54  47 S20G35    29.43R
BUFFALO SD       N/A     80  33  18 SW22      29.20S
RAPID CITY     CLEAR     79  34  19 SW16G28   29.33F
$$

REGIONAL REPORTS...WYOMING/IDAHO/WASHINGTON

CITY           SKY/WX    TMP DP  RH WIND       PRES   REMARKS
GILLETTE       CLOUDY    72  30  21 SW17G26   29.34F
SHERIDAN       SUNNY     73  30  20 SW13      29.29S
BUFFALO WY     SUNNY     70  17  13 SW24G33   29.37S
CODY           SUNNY     54  27  35 W22G39    29.46R
YELLOWSTONE LA   N/A     30  24  78 VRB6      29.71R WCI  24
IDAHO FALLS    PTSUNNY   45  28  51 SW21G32   29.76R
SALMON         PTSUNNY   46  29  51 NE6       29.74R
BOISE          MOSUNNY   51  30  44 W12       29.85R
SPOKANE        MOSUNNY   51  35  54 W22G30    29.70R
$$

REGIONAL REPORTS...ALBERTA

CITY           SKY/WX    TMP DP  RH WIND       PRES   REMARKS
EDMONTON       CLOUDY    50  34  53 NW6       29.37R
CALGARY        CLOUDY    43  32  65 N13       29.40R
LETHBRIDGE     CLOUDY    52  30  43 W23       29.36R
MEDICINE HAT   CLOUDY    59  37  44 W13       29.24R
$$

REGIONAL REPORTS...SASKATCHEWAN

CITY           SKY/WX    TMP DP  RH WIND       PRES   REMARKS
SWIFT CURRENT  CLEAR     64  28  25 W12G17    29.18R
REGINA         MOCLDY    64  34  32 SE7       29.15F
SASKATOON      CLOUDY    50  36  57 NE10      29.19F
$$




USA.gov is the U.S. government's official web portal to all federal, state and local government web resources and services.